Weather History for KFLG - February, 2012

Change the Weather History Date:

Saturday, February 25, 2012

  Actual Average Record
Temperature  
Mean Temperature 37 °F 34 °F  
Max Temperature 54 °F 46 °F 70 °F (1986)
Min Temperature 20 °F 21 °F -10 °F (1919)
Degree Days  
Heating Degree Days 28 31  
Month to date heating degree days 813 828  
Since 1 July heating degree days 4549 4744  
Cooling Degree Days 0 0  
Month to date cooling degree days 0 0  
Year to date cooling degree days 0 0  
Moisture  
Dew Point 13 °F    
Average Humidity 44    
Maximum Humidity 68    
Minimum Humidity 19    
Precipitation  
Precipitation 0.00 in 0.08 in 0.84 in (1958)
Month to date precipitation 0.75 1.92  
Year to date precipitation 1.17 3.97  
Snow  
Snow 0.00 in 0.60 in 12.40 in (1998)
Month to date snowfall 10.7 18.8  
Since 1 July snowfall 60.9 71.1  
Snow Depth 0.00 in    
Sea Level Pressure  
Sea Level Pressure 30.03 in    
Wind  
Wind Speed 10 mph (SW)    
Max Wind Speed 26 mph    
Max Gust Speed 37 mph    
Visibility 10 miles    
Events      
T = Trace of Precipitation, MM = Missing Value Source: NWS Daily Summary

Daily Weather History Graph

Daily Weather History Graph

Search for Another Location

Airport or City:

Trip Planner

Search our weather history database for the weather conditions in past years. The results will help you decide how hot, cold, wet, or windy it might be!

Date:

Astronomy

Feb. 25, 2012 Rise Set
Actual Time 7:01 AM MST 6:18 PM MST
Civil Twilight 6:36 AM MST 6:43 PM MST
Nautical Twilight 6:06 AM MST 7:13 PM MST
Astronomical Twilight 5:37 AM MST 7:42 PM MST
Moon 8:38 AM MST (2/25) 10:10 PM MST (2/25)
Length of Visible Light 12h 07m
Length of Day
11h 16m
Waxing Crescent, 14% of the Moon is Illuminated
Feb 25
Waxing Crescent
Feb 29
First Quarter
Mar 8
Full
Mar 14
Last Quarter
Mar 22
New

Hourly Weather History & Observations

Time (MST) Temp. Windchill Dew Point Humidity Pressure Visibility Wind Dir Wind Speed Gust Speed Precip Events Conditions
12:57 AM 21.0 °F - 10.0 °F 63% 30.19 in 10.0 mi Calm Calm - N/A   Clear
1:57 AM 21.0 °F - 9.0 °F 60% 30.18 in 10.0 mi Calm Calm - N/A   Clear
2:57 AM 21.9 °F - 10.0 °F 60% 30.14 in 10.0 mi Calm Calm - N/A   Clear
3:57 AM 26.1 °F 21.9 °F 10.9 °F 53% 30.10 in 10.0 mi West 3.5 mph - N/A   Clear
4:57 AM 25.0 °F - 12.0 °F 58% 30.11 in 10.0 mi Calm Calm - N/A   Clear
5:57 AM 23.0 °F - 12.0 °F 63% 30.11 in 10.0 mi Calm Calm - N/A   Clear
6:57 AM 21.9 °F 17.2 °F 12.9 °F 68% 30.15 in 10.0 mi Variable 3.5 mph - N/A   Clear
7:57 AM 37.0 °F 30.4 °F 12.9 °F 37% 30.11 in 10.0 mi WSW 9.2 mph - N/A   Clear
8:57 AM 41.0 °F 33.5 °F 14.0 °F 33% 30.10 in 10.0 mi SW 13.8 mph - N/A   Clear
9:57 AM 46.0 °F 38.8 °F 16.0 °F 30% 30.09 in 10.0 mi SW 18.4 mph 24.2 mph N/A   Clear
10:57 AM 50.0 °F - 14.0 °F 24% 30.06 in 10.0 mi SW 21.9 mph 27.6 mph N/A   Clear
11:57 AM 51.1 °F - 14.0 °F 23% 30.05 in 10.0 mi WSW 16.1 mph 29.9 mph N/A   Clear
12:57 PM 52.0 °F - 14.0 °F 22% 30.01 in 10.0 mi WSW 21.9 mph 32.2 mph N/A   Clear
1:57 PM 53.1 °F - 14.0 °F 21% 29.99 in 10.0 mi SW 25.3 mph 36.8 mph N/A   Clear
2:57 PM 54.0 °F - 12.9 °F 20% 29.95 in 10.0 mi SW 20.7 mph 31.1 mph N/A   Clear
3:57 PM 53.1 °F - 12.9 °F 20% 29.92 in 10.0 mi SW 21.9 mph 28.8 mph N/A   Clear
4:57 PM 52.0 °F - 12.9 °F 21% 29.92 in 10.0 mi SW 19.6 mph 25.3 mph N/A   Clear
5:57 PM 48.9 °F - 12.9 °F 24% 29.95 in 10.0 mi WSW 12.7 mph 21.9 mph N/A   Clear
6:57 PM 45.0 °F 39.7 °F 14.0 °F 29% 29.97 in 10.0 mi SW 10.4 mph - N/A   Clear
7:57 PM 42.1 °F 35.7 °F 12.9 °F 31% 29.92 in 10.0 mi SW 11.5 mph - N/A   Clear
8:57 PM 42.1 °F 37.7 °F 12.9 °F 31% 29.91 in 10.0 mi WSW 6.9 mph - N/A   Clear
9:57 PM 37.9 °F - 14.0 °F 38% 29.91 in 10.0 mi Calm Calm - N/A   Clear
10:57 PM 30.0 °F - 15.1 °F 54% 29.93 in 10.0 mi Calm Calm - N/A   Clear
11:57 PM 27.0 °F - 14.0 °F 58% 29.93 in 10.0 mi Calm Calm - N/A   Clear